GFSNGP_850_thetae_198.txt.gz
Theta_e
313 316 318 321 324 325 323 319 322 322 327 325 337 337 338 343 345 342 340 340 342 347 347 349 350 349 349 349 348 348 348 349 348 345 344 343 344 341 338 338 340 345 351 354
320 322 324 325 326 326 326 321 322 324 326 328 337 336 337 339 339 338 341 344 346 347 347 349 349 348 348 348 347 346 346 345 341 342 343 344 344 342 343 342 346 353 357 359
321 320 325 327 327 327 327 322 321 322 322 336 336 339 341 339 340 341 345 348 348 348 348 348 348 348 348 346 345 346 346 345 344 343 343 343 344 345 347 347 352 358 360 361
318 322 332 326 329 331 332 331 325 323 331 335 340 344 343 339 341 344 345 360 352 349 348 349 349 348 348 347 346 346 346 346 346 345 345 346 348 349 351 353 357 361 363 361
321 323 327 331 329 331 333 331 339 341 330 336 341 342 347 344 344 347 348 358 357 350 350 350 349 349 348 347 347 346 347 346 346 347 348 349 350 352 355 358 362 364 363 361
316 321 334 327 325 327 331 340 335 337 340 339 338 341 344 346 343 345 348 348 357 353 351 350 350 350 349 348 347 347 347 347 347 348 350 351 352 354 358 361 365 365 361 359
315 320 329 323 324 332 340 338 333 334 338 340 341 341 349 348 343 344 349 347 348 357 355 352 351 350 349 348 348 349 349 350 350 351 352 353 355 359 361 362 365 362 359 358
315 321 329 321 323 328 327 330 332 335 335 338 342 346 349 350 351 345 343 351 347 347 349 350 352 356 354 353 351 351 352 353 354 355 356 359 360 362 361 363 365 359 358 355
324 323 317 318 318 320 324 328 328 330 332 337 339 340 342 343 344 350 349 353 353 348 350 347 346 345 349 354 355 355 354 354 356 358 360 361 363 362 362 365 363 356 355 354
319 318 317 318 317 317 319 326 325 323 327 335 337 338 341 341 341 339 343 350 354 354 353 351 349 347 346 343 343 344 344 354 359 360 363 365 364 362 362 363 360 355 353 352
317 316 315 317 318 319 317 318 325 324 322 321 331 335 339 341 343 342 341 340 338 337 340 342 342 342 343 351 347 343 345 359 363 365 365 365 366 365 364 361 353 356 354 353
315 313 314 315 317 319 320 317 318 325 322 322 321 323 331 337 341 344 343 341 337 336 338 339 338 338 337 352 354 349 349 361 365 366 366 365 365 365 363 361 357 355 353 350
313 313 314 317 316 319 320 321 319 324 323 322 321 321 322 322 331 340 346 347 345 347 348 350 348 344 342 353 358 355 355 361 365 366 365 364 364 361 357 357 356 352 352 353
312 313 313 313 313 317 318 320 321 321 324 322 320 320 321 323 322 326 338 346 348 350 357 363 357 352 353 361 360 361 360 360 362 362 364 363 363 358 358 356 352 353 352 351
312 312 312 313 313 315 317 320 320 320 321 321 319 318 318 321 321 323 326 342 347 349 358 366 365 363 362 363 362 362 362 362 363 363 362 361 359 357 357 354 353 353 350 346
312 313 314 313 313 314 316 319 318 319 320 321 322 319 317 317 318 320 322 324 342 347 356 361 361 365 366 366 364 360 360 362 361 362 359 358 357 356 353 353 353 351 347 343
311 312 313 314 313 314 316 317 317 318 318 320 321 322 319 317 317 317 319 321 321 336 346 354 358 361 364 363 362 362 359 359 360 359 357 356 356 353 349 350 353 351 347 339
311 312 313 313 313 315 316 317 318 318 319 321 321 321 318 317 317 316 316 317 316 324 340 344 351 355 359 360 360 361 362 363 360 358 355 352 352 350 349 350 352 350 347 342
310 311 310 311 312 313 314 317 318 319 320 321 321 319 318 317 318 317 316 315 318 319 320 322 336 347 353 358 361 360 361 361 358 356 352 351 349 348 349 350 352 350 348 343
308 308 308 309 309 310 312 316 316 318 319 320 321 320 319 320 320 320 322 322 321 321 321 324 330 335 339 351 356 358 356 358 358 356 354 349 349 349 349 353 353 351 348 346
306 307 307 307 306 308 310 312 314 315 316 318 320 321 321 322 322 322 322 321 322 321 323 325 328 330 338 339 348 353 355 355 356 356 356 353 350 350 349 351 350 350 350 347
304 304 304 304 305 306 307 307 309 311 313 315 317 319 320 320 320 321 321 320 322 324 323 322 321 322 335 334 335 342 349 353 355 356 356 354 353 352 350 350 350 350 350 347
306 304 303 303 302 301 303 306 307 307 308 309 311 313 315 316 317 318 319 319 321 322 322 322 322 325 324 327 329 332 339 347 349 352 351 353 354 353 353 352 351 350 348 345
307 306 305 305 304 303 302 301 301 302 304 307 307 308 310 312 313 313 313 315 317 319 320 321 321 320 328 332 332 329 335 342 346 348 348 345 351 350 349 351 351 350 347 342
308 307 307 306 305 304 303 301 301 300 299 299 303 306 307 308 308 308 310 313 315 317 318 318 318 318 318 325 334 335 337 339 343 345 346 346 346 345 345 344 343 344 344 343
308 306 306 306 306 306 303 303 302 301 300 300 299 300 304 306 306 307 308 310 312 313 314 315 316 317 317 318 326 332 335 341 339 339 343 343 339 335 337 335 334 339 341 342
304 304 303 301 301 304 305 302 303 301 301 300 300 299 300 301 305 306 306 306 307 309 310 312 313 315 317 320 323 326 330 335 337 339 339 337 337 337 335 333 332 336 340 341

GFSNGP_850_thetae_201.txt.gz
Theta_e
311 313 315 317 318 321 320 318 320 320 322 329 333 334 333 338 340 340 339 340 340 343 344 345 346 347 347 347 347 347 348 348 348 346 345 346 346 346 344 346 345 343 343 349
317 319 321 324 324 323 324 324 319 320 324 321 324 334 337 340 340 340 339 339 340 342 344 344 345 346 347 347 347 347 348 347 345 344 346 344 343 342 343 345 345 345 350 356
317 319 320 325 330 330 329 327 324 321 320 328 334 333 336 337 343 341 343 351 342 340 340 342 344 346 348 347 347 347 346 343 343 342 342 340 341 344 345 345 348 351 358 360
314 321 326 323 326 330 335 338 336 338 336 331 334 338 343 343 342 340 338 346 349 345 345 345 345 347 348 347 347 345 343 342 342 341 341 342 343 344 346 348 351 357 360 360
316 318 322 328 325 324 330 332 334 335 336 337 342 345 350 350 348 342 341 340 350 352 348 346 347 347 348 347 344 343 344 344 344 344 344 344 345 346 348 351 355 360 361 360
312 318 333 325 320 321 325 335 331 333 334 337 338 341 342 354 353 349 349 348 351 351 351 348 347 347 348 347 345 344 345 345 345 344 345 346 347 348 350 353 359 363 361 360
313 318 325 318 319 326 336 333 328 331 333 336 339 340 347 355 353 350 353 353 355 353 350 348 348 348 348 348 347 347 346 346 346 346 347 347 348 349 351 355 361 363 361 358
312 322 325 318 318 322 320 325 326 329 333 336 338 344 348 351 355 354 352 356 356 355 353 350 348 348 348 348 348 348 347 347 347 348 348 349 350 350 353 357 362 363 360 356
319 319 317 318 317 318 319 321 323 323 330 334 337 337 340 343 348 352 352 353 355 353 351 353 355 352 351 350 350 350 350 350 350 351 352 353 354 355 356 361 363 361 358 355
315 317 314 317 317 317 318 319 321 321 322 328 333 335 338 341 343 345 349 353 353 352 350 350 348 350 353 354 355 355 355 355 355 356 357 358 360 360 360 363 364 362 356 354
315 314 316 317 316 316 318 320 319 322 321 321 323 325 331 337 342 343 344 344 345 350 349 348 347 345 344 343 341 341 342 342 342 350 358 361 363 363 364 364 361 361 357 353
316 312 313 314 314 316 318 319 320 323 322 321 321 322 322 324 330 340 344 345 344 342 341 341 342 343 343 342 342 347 347 344 343 355 362 363 364 365 365 365 364 362 357 351
313 312 313 313 314 316 318 319 320 322 322 323 319 320 322 321 323 328 340 345 346 348 348 342 339 338 341 343 346 352 353 353 351 353 358 364 365 366 365 364 362 357 353 352
311 312 313 313 313 314 320 319 320 320 321 321 320 317 320 318 320 323 324 335 347 351 356 358 358 349 347 350 357 358 359 359 359 358 361 363 366 366 364 360 358 355 354 352
312 312 312 313 314 314 317 321 319 320 320 320 321 321 318 318 317 319 320 321 336 348 353 355 361 363 360 359 361 362 360 360 361 361 363 363 365 366 359 359 357 354 351 351
311 312 313 313 314 314 316 318 320 318 318 319 321 322 319 317 316 316 316 316 321 336 338 342 352 357 362 362 361 362 364 362 361 360 360 361 362 361 358 357 355 355 351 350
310 311 312 312 312 314 315 317 318 319 318 319 320 320 317 317 317 318 316 315 317 323 327 332 339 348 355 360 362 363 362 364 363 357 358 359 362 359 357 356 354 354 353 351
310 311 310 310 310 312 314 316 316 318 319 320 321 319 318 318 319 319 318 319 319 320 321 326 332 339 345 352 355 356 358 359 362 362 358 358 359 357 356 355 353 352 352 350
308 308 308 308 308 310 312 314 315 316 318 320 321 320 320 320 321 321 321 321 321 321 323 325 329 332 337 343 351 353 354 355 357 359 360 359 357 357 355 354 351 349 351 348
306 307 307 306 307 309 311 313 313 314 316 318 319 320 320 321 321 321 321 321 321 322 323 322 323 325 341 340 342 349 353 354 356 358 359 359 356 354 353 352 351 348 351 349
303 303 304 305 306 307 308 309 310 310 311 313 315 317 318 318 318 319 319 319 319 320 322 322 322 322 325 328 330 334 345 348 352 353 355 355 353 350 349 349 348 348 349 350
303 302 301 301 302 303 303 305 307 308 308 308 310 311 313 315 316 316 315 314 317 319 320 320 321 321 321 329 331 328 329 336 345 350 352 351 353 353 350 348 347 348 349 350
305 304 303 302 301 300 300 300 300 300 303 305 307 308 308 309 309 311 313 313 314 316 317 318 319 319 320 320 328 331 329 331 339 343 347 350 351 352 351 350 349 349 350 350
307 307 307 305 303 302 301 300 300 300 299 299 301 305 306 306 307 307 307 309 311 313 315 316 317 317 317 318 319 328 332 334 336 339 342 343 348 350 348 347 346 347 348 349
306 306 305 306 306 305 303 301 300 300 299 299 300 301 303 304 305 305 306 307 308 309 311 312 314 316 317 316 318 321 328 331 336 338 340 342 346 349 345 340 337 337 344 346
302 301 301 301 304 304 304 303 302 300 300 299 299 300 300 300 300 300 302 305 306 307 308 309 311 312 314 317 319 323 325 328 331 336 338 340 342 343 345 342 341 332 338 343
301 301 301 301 301 302 302 303 303 302 300 299 299 299 299 300 300 299 299 299 300 303 306 307 309 311 311 313 316 320 324 327 328 330 334 337 338 340 338 334 333 334 338 334

GFSNGP_850_thetae_207.txt.gz
Theta_e
315 316 315 316 320 322 324 325 326 326 325 326 329 330 328 329 336 341 342 342 341 341 342 342 342 343 343 343 343 343 344 344 343 343 344 345 345 344 343 344 345 346 346 347
316 316 319 320 323 322 323 325 324 327 328 335 336 335 337 337 340 341 341 342 342 342 342 343 343 343 344 344 343 344 344 344 344 344 344 345 345 345 343 344 345 346 346 347
315 318 321 323 324 325 333 337 336 330 333 338 340 340 340 342 350 346 342 341 341 342 343 343 343 343 344 344 344 344 345 345 345 345 345 345 345 346 344 344 344 344 347 349
317 320 322 326 326 332 336 333 333 336 337 337 339 338 340 349 350 354 355 353 344 339 340 342 342 342 343 344 345 345 345 345 345 345 344 344 345 344 344 344 342 346 348 352
318 317 324 329 323 325 330 335 329 330 334 336 338 341 347 345 346 347 350 351 353 350 339 339 341 341 342 344 345 345 346 346 346 345 344 343 343 341 341 341 344 347 350 356
316 318 321 327 321 321 322 338 325 325 329 333 339 344 348 344 347 352 352 351 353 350 344 340 339 341 341 343 345 346 347 346 345 344 343 341 337 337 339 344 346 350 352 358
313 318 323 321 320 322 333 333 322 322 326 332 337 334 335 340 346 354 355 353 352 349 344 341 340 341 344 344 345 347 346 345 343 339 336 335 337 341 344 346 348 351 355 359
312 317 324 318 323 329 324 322 322 323 324 328 328 330 332 336 344 352 355 355 349 346 346 345 344 344 345 346 347 346 344 339 338 341 342 343 344 345 346 347 348 351 357 360
314 322 319 318 318 319 319 321 322 324 323 323 324 328 329 333 340 346 351 354 355 348 345 346 347 347 347 348 344 341 340 342 344 345 345 346 346 346 346 347 348 350 357 360
320 318 318 317 318 319 321 322 322 322 321 322 324 324 325 328 337 345 348 351 353 355 350 346 346 347 347 348 347 345 344 346 346 346 346 346 346 346 347 347 348 351 356 361
316 317 317 317 316 318 320 321 321 321 320 319 320 321 321 321 333 340 347 350 352 354 355 356 356 348 347 347 347 347 347 347 347 347 348 349 349 350 351 351 352 353 354 360
317 313 314 316 315 316 320 320 320 321 321 318 318 318 319 318 322 336 339 344 349 351 353 354 356 355 353 353 354 352 352 353 353 353 353 351 351 352 355 357 357 356 358 362
313 312 314 315 315 316 318 319 320 320 320 318 317 317 317 317 317 324 334 336 343 350 353 355 356 357 355 351 349 350 349 347 344 343 343 344 348 354 358 359 360 360 362 364
312 314 315 315 315 316 318 320 319 320 318 317 317 318 318 318 318 318 320 326 331 343 350 354 356 359 360 357 355 354 354 354 353 352 351 352 355 359 361 362 362 362 363 363
312 312 313 314 314 314 316 319 321 320 319 318 318 318 319 319 320 321 321 321 326 333 341 349 351 356 359 360 361 361 360 359 357 357 358 358 358 361 362 363 362 364 363 362
311 310 311 311 312 313 313 315 316 317 319 319 319 319 319 319 320 320 321 323 322 326 330 338 344 346 354 359 361 362 361 362 361 358 357 356 356 360 361 365 363 364 363 361
309 308 309 309 309 310 311 312 313 315 317 319 319 319 319 320 320 320 320 320 322 322 324 327 333 338 342 351 354 354 354 357 358 358 358 356 355 354 355 353 353 358 362 360
306 306 307 306 308 308 309 310 310 313 316 315 318 319 319 320 320 319 319 319 319 321 321 321 323 326 336 339 344 351 354 354 355 355 357 357 357 357 358 356 355 356 353 359
306 306 306 307 307 307 307 307 308 311 314 315 316 318 317 317 318 318 318 318 318 318 318 320 320 321 324 327 332 339 347 349 351 352 352 355 356 355 356 358 358 356 355 354
301 301 302 303 305 305 306 306 307 308 310 311 312 311 312 314 314 315 315 315 315 316 317 318 318 319 320 320 324 327 329 334 343 349 351 353 350 352 352 355 354 354 354 354
301 300 300 299 299 299 299 300 302 305 306 307 308 307 308 309 310 310 311 312 312 314 315 315 316 317 318 318 319 320 324 326 327 334 345 347 348 349 350 352 353 352 351 349
305 303 301 300 300 299 299 299 300 302 304 304 305 305 306 306 307 306 307 308 309 309 311 312 314 315 316 317 318 318 319 320 326 328 332 340 346 349 348 350 350 351 350 349
305 306 305 303 301 300 299 300 299 300 300 300 300 300 301 301 301 303 305 307 307 308 308 308 311 313 315 315 316 317 319 319 320 321 328 331 335 342 345 346 347 348 350 349
305 303 304 304 303 302 301 299 299 299 299 299 300 300 299 299 299 299 299 300 305 307 308 308 309 310 311 313 314 316 318 321 322 322 322 327 334 335 338 339 344 345 346 350
301 301 301 302 302 302 302 302 300 299 299 299 299 299 300 299 299 299 299 299 299 299 303 306 308 309 310 310 312 313 315 317 320 323 325 326 329 334 337 339 341 342 343 344
301 301 300 300 301 301 302 302 302 301 300 301 301 299 299 299 299 298 298 297 298 298 299 300 301 303 305 308 310 311 312 314 316 318 320 322 325 329 332 335 338 340 341 342
297 298 298 299 299 300 300 300 300 300 301 300 299 299 299 299 299 299 298 298 297 298 298 299 301 299 300 302 305 307 309 311 312 313 315 317 319 322 326 328 330 335 337 338

GFSNGP_850_thetae_210.txt.gz
Theta_e
320 319 320 321 324 325 327 327 327 327 329 330 332 339 337 339 344 345 348 347 345 348 349 349 349 350 352 352 352 353 348 342 338 340 342 342 342 343 342 343 343 343 345 348
321 320 319 322 323 324 326 327 327 328 328 331 335 337 340 341 350 351 346 348 348 349 351 352 351 347 351 351 347 348 345 344 343 341 340 342 342 343 345 345 342 344 345 350
321 320 320 323 324 325 327 327 328 328 330 339 338 341 342 343 352 355 357 351 348 349 351 352 352 352 352 347 344 343 343 344 344 344 341 342 343 344 345 345 342 344 346 351
321 322 323 327 329 327 327 335 336 337 338 340 340 341 341 349 352 353 354 356 359 351 350 353 354 353 350 346 346 344 343 343 344 344 343 343 344 344 345 345 343 344 346 354
320 321 323 329 330 332 334 336 334 337 337 338 339 341 345 347 347 350 352 354 358 361 358 350 352 351 349 354 353 349 345 344 344 344 345 344 344 344 345 343 342 344 349 360
319 320 320 329 327 326 328 338 332 332 336 338 340 340 348 342 347 350 351 353 356 360 354 351 352 350 344 352 355 355 352 345 345 345 344 344 343 343 343 341 342 353 354 360
315 321 323 327 326 326 336 334 331 331 333 337 341 339 338 340 346 347 351 354 356 356 352 350 351 352 351 354 354 349 354 349 345 345 344 344 343 341 340 339 353 348 360 352
313 318 321 322 327 332 330 328 328 330 330 333 334 335 337 341 346 347 348 348 351 358 355 355 355 353 352 355 348 351 350 348 346 346 345 344 341 339 338 341 348 357 350 355
313 318 320 319 323 324 326 329 329 328 328 330 332 333 335 339 337 340 346 351 352 356 357 356 356 356 357 356 357 349 348 347 346 345 342 336 336 338 342 345 358 348 350 356
315 321 319 320 321 324 326 326 326 326 325 326 328 329 332 330 332 340 345 347 352 354 354 354 358 357 359 354 351 349 347 346 342 340 339 339 343 345 357 352 359 352 351 356
318 319 317 319 319 321 324 324 324 323 323 324 325 326 329 333 332 333 338 344 350 352 354 354 353 351 358 356 348 347 345 343 342 345 345 345 352 355 358 356 357 354 350 352
319 314 314 317 319 321 323 324 323 324 323 322 323 325 326 328 332 333 336 344 349 352 353 355 356 352 351 350 350 354 357 352 353 355 348 356 352 350 351 354 350 350 351 353
315 314 315 317 319 321 322 323 323 322 322 321 321 324 326 326 327 332 334 336 343 347 353 344 352 355 356 361 350 363 361 358 358 359 358 362 359 359 356 352 355 354 354 357
313 315 316 316 318 320 321 323 321 321 321 323 323 323 325 326 326 327 329 329 331 342 348 351 350 353 360 359 359 366 367 365 364 363 361 359 354 355 356 356 358 358 357 359
312 313 314 315 315 316 317 320 321 321 320 321 322 324 324 324 324 324 325 325 328 336 343 346 346 349 348 356 355 363 364 364 363 362 361 358 354 355 357 359 360 361 360 362
310 311 311 312 314 314 314 316 316 317 319 320 319 319 320 322 322 322 322 322 323 323 328 338 341 345 350 355 341 363 367 365 364 362 358 361 359 358 360 361 362 363 363 363
310 310 310 311 312 313 313 313 314 312 316 318 316 318 319 319 319 319 320 320 321 321 321 322 329 335 338 348 355 358 358 358 360 363 362 360 359 355 353 357 362 361 362 362
307 306 307 308 309 311 312 312 313 312 314 314 315 316 317 318 317 318 318 318 318 318 319 320 320 323 328 334 343 348 349 352 355 356 357 358 360 363 361 358 354 352 353 358
305 305 305 305 307 308 309 310 311 311 310 312 314 315 315 314 314 315 317 316 316 316 317 317 318 319 320 322 327 338 341 336 349 353 353 354 353 357 358 361 359 357 353 353
303 302 300 300 300 302 305 308 310 311 310 310 312 312 312 312 313 313 315 313 312 312 315 315 316 317 317 319 320 326 328 329 338 345 348 349 348 349 351 354 354 354 356 356
304 304 304 304 303 303 303 304 305 307 308 309 310 310 310 311 311 310 310 311 309 311 311 312 314 315 316 317 317 318 319 322 326 329 334 343 346 348 347 348 350 352 353 352
307 305 305 304 304 304 303 304 304 304 304 304 305 306 305 306 308 308 307 307 309 308 309 310 311 313 315 315 316 317 318 317 320 323 327 332 338 342 344 346 347 348 349 350
308 308 307 306 305 304 304 303 303 303 303 303 303 303 303 303 303 303 303 302 306 307 308 307 309 310 312 314 313 315 316 316 318 321 322 325 330 332 335 340 343 345 345 345
306 305 306 307 307 306 305 304 303 303 303 303 303 303 302 302 302 301 302 301 300 303 306 304 307 309 310 311 312 312 314 315 317 318 321 323 325 327 331 334 337 339 341 343
304 304 304 304 303 304 306 306 305 304 303 303 303 303 302 302 301 301 301 301 300 301 303 303 302 305 307 308 309 310 311 312 314 315 316 317 319 323 326 329 332 336 338 339
302 301 301 302 302 302 303 304 304 304 304 303 303 303 303 302 301 301 301 301 301 300 301 302 302 303 305 305 306 307 307 308 310 311 312 313 315 316 319 323 326 330 333 335
300 298 299 300 300 301 301 300 301 301 302 303 303 303 303 302 302 301 301 301 301 301 301 301 302 302 302 303 303 304 304 305 305 307 306 308 311 312 314 316 319 323 326 328